Weather History for Kuala Lumpur, Malaysia

Change the Weather History Date:

Sunday, February 24, 2013

  Actual Average Record
Temperature  
Mean Temperature 82 °F -  
Max Temperature 91 °F - - ()
Min Temperature 73 °F - - ()
Cooling Degree Days 17    
Growing Degree Days 32 (Base 50)    
Moisture  
Dew Point 76 °F    
Average Humidity 85    
Maximum Humidity 100    
Minimum Humidity 56    
Precipitation  
Precipitation 0.55 in - - ()
Sea Level Pressure  
Sea Level Pressure 29.78 in    
Wind  
Wind Speed 4 mph ()    
Max Wind Speed 10 mph    
Max Gust Speed -    
Visibility 5.8 miles    
Events Rain , Thunderstorm    
T = Trace of Precipitation, MM = Missing Value Source: Averaged Metar Reports

Daily Weather History Graph

Daily Weather History Graph

Search for Another Location

Airport:

Trip Planner

Search our weather history database for the weather conditions in past years. The results will help you decide how hot, cold, wet, or windy it might be!

Date:

Astronomy

Feb. 24, 2013 Rise Set
Actual Time 7:24 AM MYT 7:27 PM MYT
Civil Twilight 7:03 AM MYT 7:48 PM MYT
Nautical Twilight 6:39 AM MYT 8:13 PM MYT
Astronomical Twilight 6:15 AM MYT 8:37 PM MYT
Moon 6:12 PM MYT (2/24) 5:52 AM MYT (2/24)
Length of Visible Light 12h 44m
Length of Day
12h 03m
Waxing Gibbous, 97% of the Moon is Illuminated
Feb 24
Waxing Gibbous
Feb 26
Full
Mar 5
Last Quarter
Mar 12
New
Mar 20
First Quarter

Hourly Weather History & Observations

Time (MYT) Temp. Heat Index Dew Point Humidity Pressure Visibility Wind Dir Wind Speed Gust Speed Precip Events Conditions
12:00 AM 80.6 °F 86.2 °F 75.2 °F 84% 29.83 in 6.2 mi NNW 3.5 mph - N/A   Mostly Cloudy
12:30 AM 78.8 °F - 77.0 °F 94% 29.83 in 6.2 mi West 3.5 mph - N/A   Mostly Cloudy
1:00 AM 78.8 °F - 75.2 °F 89% 29.83 in 6.2 mi NW 3.5 mph - N/A   Mostly Cloudy
1:30 AM 78.8 °F - 75.2 °F 89% 29.83 in 6.2 mi NNW 2.3 mph - N/A   Mostly Cloudy
2:00 AM 80 °F - 76 °F 86% 29.83 in 5 mi North 1.2 mph - -   Scattered Clouds
2:00 AM 78.8 °F - 75.2 °F 89% 29.83 in 6.2 mi NNW 3.5 mph - N/A   Mostly Cloudy
2:30 AM 78.8 °F - 75.2 °F 89% 29.80 in 6.2 mi NNW 3.5 mph - N/A   Mostly Cloudy
3:00 AM 78.8 °F - 75.2 °F 89% 29.80 in 6.2 mi North 3.5 mph - N/A   Mostly Cloudy
3:30 AM 78.8 °F - 77.0 °F 94% 29.77 in 6.2 mi NNE 4.6 mph - N/A   Mostly Cloudy
4:00 AM 78.8 °F - 75.2 °F 89% 29.77 in 6.2 mi NNE 3.5 mph - N/A   Mostly Cloudy
4:30 AM 78.8 °F - 75.2 °F 89% 29.77 in 6.2 mi NNE 3.5 mph - N/A   Mostly Cloudy
5:00 AM 78 °F - 77 °F 94% 29.77 in 4 mi Calm Calm - -   Partly Cloudy
5:00 AM 78.8 °F - 75.2 °F 89% 29.74 in 6.2 mi NNE 4.6 mph - N/A   Mostly Cloudy
5:30 AM 78.8 °F - 75.2 °F 89% 29.77 in 6.2 mi North 3.5 mph - N/A   Mostly Cloudy
6:00 AM 78.8 °F - 75.2 °F 89% 29.77 in 6.2 mi NNE 3.5 mph - N/A   Mostly Cloudy
6:30 AM 78.8 °F - 75.2 °F 89% 29.77 in 6.2 mi North 2.3 mph - N/A   Mostly Cloudy
7:00 AM 78.8 °F - 75.2 °F 89% 29.77 in 6.2 mi NNW 2.3 mph - N/A   Mostly Cloudy
7:30 AM 78.8 °F - 75.2 °F 89% 29.77 in 6.2 mi North 1.2 mph - N/A   Mostly Cloudy
8:00 AM 79 °F - 76 °F 89% 29.81 in 6 mi NNW 2.3 mph - -   Haze
8:00 AM 78.8 °F - 75.2 °F 89% 29.80 in 5.6 mi North 3.5 mph - N/A   Mostly Cloudy
8:30 AM 78.8 °F - 75.2 °F 89% 29.80 in 6.2 mi North 4.6 mph - N/A   Mostly Cloudy
9:00 AM 80.6 °F 86.2 °F 75.2 °F 84% 29.80 in 6.2 mi North 2.3 mph - N/A   Mostly Cloudy
9:30 AM 82.4 °F 89.5 °F 75.2 °F 79% 29.80 in 6.2 mi NE 8.1 mph - N/A   Mostly Cloudy
10:00 AM 86.0 °F 96.9 °F 77.0 °F 74% 29.83 in 6.2 mi NNE 5.8 mph - N/A   Mostly Cloudy
10:30 AM 86.0 °F 95.1 °F 75.2 °F 70% 29.83 in 6.2 mi North 4.6 mph - N/A   Mostly Cloudy
11:00 AM 86 °F - 78 °F 70% 29.83 in 6 mi NNE 2.3 mph - -   Haze
11:00 AM 86.0 °F 95.1 °F 75.2 °F 70% 29.83 in 6.2 mi NW 4.6 mph - N/A   Mostly Cloudy
11:30 AM 86.0 °F 95.1 °F 75.2 °F 70% 29.83 in 6.2 mi NNW 5.8 mph - N/A   Mostly Cloudy
12:00 PM 87.8 °F 97.6 °F 75.2 °F 66% 29.80 in 6.2 mi North 4.6 mph - N/A   Mostly Cloudy
12:30 PM 87.8 °F 97.6 °F 75.2 °F 66% 29.80 in 6.2 mi WNW 4.6 mph - N/A   Mostly Cloudy
1:00 PM 89.6 °F 102.2 °F 77.0 °F 66% 29.80 in 6.2 mi NW 3.5 mph - N/A   Mostly Cloudy
1:30 PM 89.6 °F 102.2 °F 77.0 °F 66% 29.77 in 6.2 mi West 4.6 mph - N/A   Mostly Cloudy
2:00 PM 91 °F - 77 °F 56% 29.76 in 11 mi North 6.9 mph - -   Haze
2:00 PM 89.6 °F 102.2 °F 77.0 °F 66% 29.74 in 6.2 mi SW 3.5 mph - N/A   Mostly Cloudy
2:30 PM 89.6 °F 102.2 °F 77.0 °F 66% 29.74 in 6.2 mi WNW 3.5 mph - N/A   Mostly Cloudy
3:00 PM 89.6 °F 104.7 °F 78.8 °F 70% 29.71 in 6.2 mi West 6.9 mph - N/A   Mostly Cloudy
3:30 PM 89.6 °F 102.2 °F 77.0 °F 66% 29.71 in 6.2 mi West 8.1 mph - N/A   Mostly Cloudy
4:00 PM 87.8 °F 102.5 °F 78.8 °F 75% 29.68 in 5.6 mi West 9.2 mph - N/A   Mostly Cloudy
4:30 PM 84.2 °F 96.1 °F 78.8 °F 84% 29.71 in 4.3 mi SSW 6.9 mph - N/A Rain , Thunderstorm Light Thunderstorms and Rain
5:00 PM 77 °F - 76 °F 98% 29.73 in 2 mi NNE 1.2 mph - - Rain , Thunderstorm Thunderstorms and Rain
5:00 PM 80.6 °F 88.1 °F 78.8 °F 94% 29.71 in 1.2 mi NE 6.9 mph - N/A Rain , Thunderstorm Thunderstorms and Rain
5:30 PM 77.0 °F - 75.2 °F 94% 29.74 in 1.2 mi NNE 10.4 mph - N/A Rain , Thunderstorm Heavy Thunderstorms and Rain
6:00 PM 77.0 °F - 75.2 °F 94% 29.74 in 3.7 mi NNE 9.2 mph - N/A Rain , Thunderstorm Light Thunderstorms and Rain
6:30 PM 77.0 °F - 75.2 °F 94% 29.74 in 5.0 mi NNW 2.3 mph - N/A Rain , Thunderstorm Light Thunderstorms and Rain
7:00 PM 77.0 °F - 77.0 °F 100% 29.74 in 5.0 mi NNW 3.5 mph - N/A Rain Light Rain
7:30 PM 77.0 °F - 77.0 °F 100% 29.77 in 6.2 mi NNE 4.6 mph - N/A Rain Light Rain
8:00 PM 79 °F - 77 °F 92% 29.78 in 6 mi North 4.6 mph - - Rain Light Rain
8:00 PM 77.0 °F - 75.2 °F 94% 29.77 in 5.6 mi NNE 6.9 mph - N/A Rain Light Rain
8:30 PM 77.0 °F - 75.2 °F 94% 29.77 in 6.2 mi NNE 8.1 mph - N/A Rain Light Rain
9:00 PM 77.0 °F - 75.2 °F 94% 29.80 in 6.2 mi NNE 10.4 mph - N/A   Mostly Cloudy
9:30 PM 77.0 °F - 75.2 °F 94% 29.80 in 6.2 mi NNE 8.1 mph - N/A   Mostly Cloudy
10:00 PM 77.0 °F - 77.0 °F 100% 29.80 in 6.2 mi NNE 6.9 mph - N/A Rain Light Rain
10:30 PM 77.0 °F - 75.2 °F 94% 29.80 in 5.6 mi North 6.9 mph - N/A Rain Light Rain
11:00 PM 77 °F - 76 °F 97% 29.83 in 6 mi Calm Calm - - Rain Light Rain
11:00 PM 77.0 °F - 75.2 °F 94% 29.83 in 6.2 mi North 5.8 mph - N/A Rain Light Rain
11:30 PM 77.0 °F - 75.2 °F 94% 29.83 in 6.2 mi North 3.5 mph - N/A   Mostly Cloudy